Content
SEND FEEDBACK

Daily
Averages
Monthly
Summary
Switzerland

GENEVA, SWITZERLAND


Home > Europe > Switzerland
Elevation: 1364 feet     Latitude: 46 15N     Longitude: 006 08E

WEATHER
 
SELECT A DAY
Number of Records: 305,246;   Date Range: 7/1/96 - 7/7/14
 
SHARE

PRINT THIS DATA

[ ← Previous Day ]
WEATHER ALMANAC - JUNE 12, 2013
[ Next Day → ]
[ °C ]   °F
Weather ElementAverageHighLow
Temperature64.3 °F77 °F (4:20 pm)50 °F (5:20 am)
Dewpoint52.7 °F57.2 °F (11:20 pm)49 °F (6:00 am)
Humidity67.2 %100 % (3:50 am)34 % (4:00 pm)
Barometer30.14 in30.18 in (8:20 am)30.06 in (7:00 pm)
Wind Speed3.1 mph6.9 mph (2:00 pm)
Weather ElementAverage
Visibility7.3 mi
Wind DirectionENE (67.5 °)

Weather ElementTotal
Precipitation---
Heating Degree Days1.5 (Base 65)
Growing Degree Days13.5 (Base 50)
Averaged from 66 records on June 12, 2013
WEATHER CONDITIONS BREAKOUT
WIND DIRECTION BREAKOUT
WEATHER BY HOUR - JUNE 12, 2013
[ °C ]   °F
Local TimeTemperatureDewpointHumidityBarometerVisibilityWind DirectionWind SpeedGust SpeedPrecipitationEventsConditions
12:20 AM57.2 °F53.6 °F88 %30.12 inVariable1.2 mphClear
12:50 AM55.4 °F53.6 °F94 %30.12 inNW (310°)1.2 mphClear
1:00 AM55.0 °F52.0 °F88 %30.13 inWSW (240°)1.2 mph
1:20 AM55.4 °F53.6 °F94 %30.12 inCalmClear
1:50 AM55.4 °F53.6 °F94 %30.12 inCalmClear
2:00 AM55.0 °F52.0 °F88 %30.14 in16.0 miNorth1.2 mph
2:20 AM53.6 °F51.8 °F94 %30.12 inCalmClear
2:50 AM53.6 °F51.8 °F94 %30.12 inCalmClear
3:00 AM54.0 °F51.0 °F88 %30.14 inNW (310°)2.3 mph
3:50 AM51.8 °F51.8 °F100 %30.12 inCalmClear
4:00 AM53.0 °F50.0 °F87 %30.15 inCalm
4:20 AM51.8 °F51.8 °F100 %30.12 inCalmClear
4:50 AM51.8 °F50.0 °F94 %30.12 inVariable1.2 mphClear
5:20 AM50.0 °F50.0 °F100 %30.15 inCalmClear
5:50 AM50.0 °F50.0 °F100 %30.12 inCalmClear
6:00 AM51.0 °F49.0 °F88 %30.15 inNorth (350°)2.3 mph
6:20 AM50.0 °F50.0 °F100 %30.15 in6.2 miVariable1.2 mphScattered Clouds
6:50 AM53.6 °F51.8 °F94 %30.15 in6.2 miVariable1.2 mphScattered Clouds
7:00 AM54.0 °F51.0 °F84 %30.17 inWest (260°)1.2 mph
7:20 AM55.4 °F51.8 °F88 %30.15 in6.2 miCalmMostly Cloudy
7:50 AM59.0 °F53.6 °F82 %30.15 in6.2 miVariable2.3 mphMostly Cloudy
8:00 AM57.0 °F51.0 °F76 %30.17 in12.0 miEast (90°)3.5 mphMostly Cloudy
8:20 AM59.0 °F53.6 °F82 %30.18 in6.2 miVariable1.2 mphMostly Cloudy
8:50 AM59.0 °F55.4 °F88 %30.18 in6.2 miVariable1.2 mphMostly Cloudy
9:00 AM58.0 °F53.0 °F77 %30.18 inENE (60°)2.3 mph
9:20 AM60.8 °F53.6 °F77 %30.18 in6.2 miVariable1.2 mphMostly Cloudy
9:50 AM62.6 °F55.4 °F77 %30.18 in6.2 miVariable1.2 mphMostly Cloudy
10:00 AM61.0 °F53.0 °F68 %30.18 inNNE (20°)1.2 mph
10:20 AM64.4 °F53.6 °F68 %30.18 in6.2 miVariable1.2 mphMostly Cloudy
10:50 AM66.2 °F53.6 °F64 %30.18 in6.2 miVariable2.3 mphScattered Clouds
11:20 AM68.0 °F53.6 °F60 %30.18 in6.2 miVariable3.5 mphScattered Clouds
11:50 AM69.8 °F53.6 °F56 %30.18 in6.2 miVariable3.5 mphScattered Clouds
12:00 PM69.0 °F53.0 °F46 %30.15 inNE (50°)3.5 mph
12:20 PM69.8 °F53.6 °F56 %30.18 in6.2 miVariable2.3 mphMostly Cloudy
12:50 PM69.8 °F53.6 °F56 %30.18 in6.2 miEast (80°)4.6 mphMostly Cloudy
1:00 PM69.0 °F51.0 °F41 %30.14 inENE (70°)4.6 mph
1:20 PM71.6 °F53.6 °F53 %30.18 in6.2 miVariable4.6 mphMostly Cloudy
1:50 PM71.6 °F51.8 °F50 %30.15 in6.2 miEast (80°)5.8 mphMostly Cloudy
2:00 PM70.0 °F49.0 °F37 %30.12 in16.0 miENE (60°)6.9 mphScattered Clouds
2:20 PM73.4 °F51.8 °F47 %30.15 in6.2 miEast (90°)4.6 mphMostly Cloudy
2:50 PM73.4 °F50.0 °F44 %30.15 in6.2 miNE (50°)4.6 mphMostly Cloudy
3:00 PM73.0 °F51.0 °F35 %30.10 inEast (90°)4.6 mph
3:20 PM75.2 °F50.0 °F41 %30.15 in6.2 miENE (70°)4.6 mphScattered Clouds
3:50 PM75.2 °F53.6 °F47 %30.12 in6.2 miEast (80°)5.8 mphMostly Cloudy
4:00 PM75.0 °F52.0 °F34 %30.08 inEast (90°)5.8 mph
4:20 PM77.0 °F51.8 °F41 %30.12 in6.2 miEast (80°)5.8 mphMostly Cloudy
4:50 PM77.0 °F53.6 °F44 %30.12 in6.2 miEast (80°)5.8 mphMostly Cloudy
5:20 PM77.0 °F50.0 °F39 %30.12 in6.2 miEast (100°)6.9 mphMostly Cloudy
5:50 PM75.2 °F51.8 °F44 %30.12 in6.2 miENE (60°)5.8 mphMostly Cloudy
6:00 PM75.0 °F54.0 °F37 %30.07 inNE (50°)5.8 mph
6:20 PM75.2 °F53.6 °F47 %30.12 in6.2 miNE (40°)4.6 mphMostly Cloudy
6:50 PM75.2 °F53.6 °F47 %30.12 in6.2 miENE (60°)6.9 mphMostly Cloudy
7:00 PM74.0 °F52.0 °F35 %30.06 inNE (50°)6.9 mph
7:20 PM75.2 °F53.6 °F47 %30.12 in6.2 miNE (50°)6.9 mphMostly Cloudy
7:50 PM75.2 °F53.6 °F47 %30.12 in6.2 miNE (40°)6.9 mphMostly Cloudy
8:00 PM73.0 °F53.0 °F39 %30.07 in19.0 miNNE (30°)5.8 mphScattered Clouds
8:20 PM73.4 °F53.6 °F50 %30.12 in6.2 miNE (40°)5.8 mphMostly Cloudy
8:50 PM71.6 °F53.6 °F53 %30.12 in6.2 miVariable2.3 mphScattered Clouds
9:00 PM69.0 °F54.0 °F49 %30.09 inNorth (10°)3.5 mph
9:20 PM68.0 °F55.4 °F64 %30.12 in6.2 miNNE (20°)3.5 mphScattered Clouds
9:50 PM66.2 °F55.4 °F68 %30.12 in6.2 miVariable3.5 mphPartly Cloudy
10:00 PM65.0 °F55.0 °F62 %30.11 inNNW (340°)3.5 mph
10:20 PM64.4 °F55.4 °F73 %30.12 inNW (320°)3.5 mphClear
10:50 PM62.6 °F55.4 °F77 %30.15 inVariable1.2 mphClear
11:20 PM64.4 °F57.2 °F77 %30.15 inWest (280°)4.6 mphClear
11:50 PM64.4 °F57.2 °F77 %30.15 inWNW (290°)2.3 mphClear
Hourly data recorded from LSGG, located miles away from Geneva, Switzerland







STORIES FROM OUR PARTNERS